"Period start","avg(HW err(1)/warn(2) (#))","avg(Visibility (m))","avg(Weather code (#))","avg(Precip intensity (mm/h))","min(HW err(1)/warn(2) (#))","max(HW err(1)/warn(2) (#))","std(HW err(1)/warn(2) (#))","med(HW err(1)/warn(2) (#))","min(Visibility (m))","max(Visibility (m))","std(Visibility (m))","med(Visibility (m))","min(Weather code (#))","max(Weather code (#))","std(Weather code (#))","med(Weather code (#))","min(Precip intensity (mm/h))","max(Precip intensity (mm/h))","std(Precip intensity (mm/h))","med(Precip intensity (mm/h))"
2016-03-22 00:00:00,2,3925,34,0.74,2,2,0,2,2254,5967,1202,3848,0,41,15,41,0.00,2.25,0.75,0.33
2016-03-22 00:10:00,2,2518,41,2.12,2,2,0,2,1704,3742,565,2372,41,41,0,41,1.10,3.00,0.63,2.27
2016-03-22 00:20:00,2,2036,71,3.40,2,2,0,2,1286,2414,310,2016,71,71,0,71,1.20,5.45,1.56,3.65
2016-03-22 00:30:00,2,1587,71,2.60,2,2,0,2,1268,2223,265,1508,71,71,0,71,1.75,3.45,0.51,2.65
2016-03-22 00:40:00,2,1076,71,1.99,2,2,0,2,833,1419,170,1076,71,71,0,71,1.40,2.45,0.36,2.02
2016-03-22 00:50:00,2,1236,71,2.07,2,2,0,2,898,1413,145,1222,71,71,0,71,1.50,2.55,0.33,2.00
2016-03-22 01:00:00,2,1131,72,2.11,2,2,0,2,844,1403,180,1156,71,74,1,71,1.20,3.30,0.60,2.10
2016-03-22 01:10:00,2,826,73,1.49,2,2,0,2,640,1199,172,768,71,77,3,71,0.55,2.60,0.66,1.40
2016-03-22 01:20:00,2,974,48,1.43,2,2,0,2,688,1206,145,970,41,77,14,41,0.95,2.20,0.34,1.40
2016-03-22 01:30:00,2,1035,65,2.42,2,2,0,2,866,1226,109,1054,41,71,12,71,1.20,3.90,0.65,2.35
2016-03-22 01:40:00,2,545,71,4.43,2,2,0,2,284,831,160,504,71,72,0,71,3.35,5.75,0.73,4.25
2016-03-22 01:50:00,2,442,72,7.31,1,2,0,2,322,498,59,464,72,72,0,72,5.05,10.10,1.57,7.08
2016-03-22 02:00:00,1,,,,1,1,0,1,,,,,,,,,,,,
2016-03-22 02:10:00,1,,,,1,1,0,1,,,,,,,,,,,,
2016-03-22 02:20:00,1,,,,1,1,0,1,,,,,,,,,,,,
2016-03-22 02:30:00,1,,,,1,1,0,1,,,,,,,,,,,,
2016-03-22 02:40:00,1,,,,1,1,0,1,,,,,,,,,,,,
2016-03-22 02:50:00,1,,,,1,1,0,1,,,,,,,,,,,,
2016-03-22 03:00:00,1,,,,1,1,0,1,,,,,,,,,,,,
2016-03-22 03:10:00,1,,,,1,1,0,1,,,,,,,,,,,,
2016-03-22 03:20:00,1,,,,1,1,0,1,,,,,,,,,,,,
2016-03-22 03:30:00,1,,,,1,1,0,1,,,,,,,,,,,,
2016-03-22 03:40:00,1,,,,1,1,0,1,,,,,,,,,,,,
2016-03-22 03:50:00,1,,,,1,1,0,1,,,,,,,,,,,,
2016-03-22 04:00:00,1,,,,1,1,0,1,,,,,,,,,,,,
2016-03-22 04:10:00,1,,,,1,1,0,1,,,,,,,,,,,,
2016-03-22 04:20:00,1,,,,1,1,0,1,,,,,,,,,,,,
2016-03-22 04:30:00,1,,,,1,1,0,1,,,,,,,,,,,,
2016-03-22 04:40:00,1,,,,1,1,0,1,,,,,,,,,,,,
2016-03-22 04:50:00,1,,,,1,1,0,1,,,,,,,,,,,,
2016-03-22 05:00:00,1,,,,1,1,0,1,,,,,,,,,,,,
2016-03-22 05:10:00,1,,,,1,1,0,1,,,,,,,,,,,,
2016-03-22 05:20:00,1,,,,1,1,0,1,,,,,,,,,,,,
2016-03-22 05:30:00,1,,,,1,1,0,1,,,,,,,,,,,,
2016-03-22 05:40:00,1,,,,1,1,0,1,,,,,,,,,,,,
2016-03-22 05:50:00,1,,,,1,1,0,1,,,,,,,,,,,,
2016-03-22 06:00:00,1,,,,1,1,0,1,,,,,,,,,,,,
2016-03-22 06:10:00,1,,,,1,1,0,1,,,,,,,,,,,,
2016-03-22 06:20:00,1,,,,1,1,0,1,,,,,,,,,,,,
2016-03-22 06:30:00,1,,,,1,1,0,1,,,,,,,,,,,,
2016-03-22 06:40:00,1,,,,1,1,0,1,,,,,,,,,,,,
2016-03-22 06:50:00,1,,,,1,1,0,1,,,,,,,,,,,,
2016-03-22 07:00:00,1,,,,1,1,0,1,,,,,,,,,,,,
2016-03-22 07:10:00,1,,,,1,1,0,1,,,,,,,,,,,,
2016-03-22 07:20:00,1,,,,1,1,0,1,,,,,,,,,,,,
2016-03-22 07:30:00,1,,,,1,1,0,1,,,,,,,,,,,,
2016-03-22 07:40:00,1,,,,1,1,0,1,,,,,,,,,,,,
2016-03-22 07:50:00,2,10199,,0.00,1,2,0,2,0,26545,10914,6604,,,,,0.00,0.00,0.00,0.00
2016-03-22 08:00:00,2,29552,20,0.00,2,2,0,2,16884,40853,6334,30269,20,20,0,20,0.00,0.00,0.00,0.00
2016-03-22 08:10:00,2,35983,20,0.00,2,2,0,2,24158,48324,7990,35851,20,20,0,20,0.00,0.00,0.00,0.00
2016-03-22 08:20:00,2,49101,20,0.00,2,2,0,2,46389,50000,1348,50000,20,20,0,20,0.00,0.00,0.00,0.00
2016-03-22 08:30:00,2,49676,20,0.00,2,2,0,2,46765,50000,970,50000,20,20,0,20,0.00,0.00,0.00,0.00
2016-03-22 08:40:00,2,49212,0,0.00,2,2,0,2,44188,50000,1748,50000,0,0,0,0,0.00,0.00,0.00,0.00
2016-03-22 08:50:00,2,49861,0,0.00,2,2,0,2,48612,50000,416,50000,0,0,0,0,0.00,0.00,0.00,0.00
2016-03-22 09:00:00,2,50000,0,0.00,2,2,0,2,50000,50000,0,50000,0,0,0,0,0.00,0.00,0.00,0.00
2016-03-22 09:10:00,2,50000,0,0.00,2,2,0,2,50000,50000,0,50000,0,0,0,0,0.00,0.00,0.00,0.00
2016-03-22 09:20:00,2,49705,0,0.00,2,2,0,2,48140,50000,615,50000,0,0,0,0,0.00,0.00,0.00,0.00
2016-03-22 09:30:00,2,50000,0,0.00,2,2,0,2,50000,50000,0,50000,0,0,0,0,0.00,0.00,0.00,0.00
2016-03-22 09:40:00,2,50000,0,0.00,2,2,0,2,50000,50000,0,50000,0,0,0,0,0.00,0.00,0.00,0.00
2016-03-22 09:50:00,2,50000,0,0.00,2,2,0,2,50000,50000,0,50000,0,0,0,0,0.00,0.00,0.00,0.00
2016-03-22 10:00:00,2,50000,0,0.00,2,2,0,2,50000,50000,0,50000,0,0,0,0,0.00,0.00,0.00,0.00
2016-03-22 10:10:00,2,50000,0,0.00,2,2,0,2,50000,50000,0,50000,0,0,0,0,0.00,0.00,0.00,0.00
2016-03-22 10:20:00,2,49877,0,0.00,2,2,0,2,48767,50000,370,50000,0,0,0,0,0.00,0.00,0.00,0.00
2016-03-22 10:30:00,2,49986,0,0.00,2,2,0,2,49855,50000,44,50000,0,0,0,0,0.00,0.00,0.00,0.00
2016-03-22 10:40:00,2,50000,0,0.00,2,2,0,2,50000,50000,0,50000,0,0,0,0,0.00,0.00,0.00,0.00
2016-03-22 10:50:00,2,50000,0,0.00,2,2,0,2,50000,50000,0,50000,0,0,0,0,0.00,0.00,0.00,0.00
2016-03-22 11:00:00,2,50000,0,0.00,2,2,0,2,50000,50000,0,50000,0,0,0,0,0.00,0.00,0.00,0.00
2016-03-22 11:10:00,2,50000,0,0.00,2,2,0,2,50000,50000,0,50000,0,0,0,0,0.00,0.00,0.00,0.00
2016-03-22 11:20:00,2,50000,0,0.00,2,2,0,2,50000,50000,0,50000,0,0,0,0,0.00,0.00,0.00,0.00
2016-03-22 11:30:00,2,50000,0,0.00,2,2,0,2,50000,50000,0,50000,0,0,0,0,0.00,0.00,0.00,0.00
2016-03-22 11:40:00,2,48660,0,0.00,2,2,0,2,45522,50000,1908,50000,0,0,0,0,0.00,0.00,0.00,0.00
2016-03-22 11:50:00,2,49984,0,0.00,2,2,0,2,49841,50000,48,50000,0,0,0,0,0.00,0.00,0.00,0.00
2016-03-22 12:00:00,2,50000,0,0.00,2,2,0,2,50000,50000,0,50000,0,0,0,0,0.00,0.00,0.00,0.00
2016-03-22 12:10:00,2,50000,0,0.00,2,2,0,2,50000,50000,0,50000,0,0,0,0,0.00,0.00,0.00,0.00
2016-03-22 12:20:00,2,50000,0,0.00,2,2,0,2,50000,50000,0,50000,0,0,0,0,0.00,0.00,0.00,0.00
2016-03-22 12:30:00,2,50000,0,0.00,2,2,0,2,50000,50000,0,50000,0,0,0,0,0.00,0.00,0.00,0.00
2016-03-22 12:40:00,2,50000,0,0.00,2,2,0,2,50000,50000,0,50000,0,0,0,0,0.00,0.00,0.00,0.00
2016-03-22 12:50:00,2,50000,0,0.00,2,2,0,2,50000,50000,0,50000,0,0,0,0,0.00,0.00,0.00,0.00
2016-03-22 13:00:00,2,50000,0,0.00,2,2,0,2,50000,50000,0,50000,0,0,0,0,0.00,0.00,0.00,0.00
2016-03-22 13:10:00,2,50000,0,0.00,2,2,0,2,50000,50000,0,50000,0,0,0,0,0.00,0.00,0.00,0.00
2016-03-22 13:20:00,2,50000,0,0.00,2,2,0,2,50000,50000,0,50000,0,0,0,0,0.00,0.00,0.00,0.00
2016-03-22 13:30:00,2,50000,0,0.00,2,2,0,2,50000,50000,0,50000,0,0,0,0,0.00,0.00,0.00,0.00
2016-03-22 13:40:00,2,50000,0,0.00,2,2,0,2,50000,50000,0,50000,0,0,0,0,0.00,0.00,0.00,0.00
2016-03-22 13:50:00,2,50000,0,0.00,2,2,0,2,50000,50000,0,50000,0,0,0,0,0.00,0.00,0.00,0.00
2016-03-22 14:00:00,2,50000,0,0.00,2,2,0,2,50000,50000,0,50000,0,0,0,0,0.00,0.00,0.00,0.00
2016-03-22 14:10:00,2,50000,0,0.00,2,2,0,2,50000,50000,0,50000,0,0,0,0,0.00,0.00,0.00,0.00
2016-03-22 14:20:00,2,50000,0,0.00,2,2,0,2,50000,50000,0,50000,0,0,0,0,0.00,0.00,0.00,0.00
2016-03-22 14:30:00,2,50000,0,0.00,2,2,0,2,50000,50000,0,50000,0,0,0,0,0.00,0.00,0.00,0.00
2016-03-22 14:40:00,2,50000,0,0.00,2,2,0,2,50000,50000,0,50000,0,0,0,0,0.00,0.00,0.00,0.00
2016-03-22 14:50:00,2,50000,0,0.00,2,2,0,2,50000,50000,0,50000,0,0,0,0,0.00,0.00,0.00,0.00
2016-03-22 15:00:00,2,50000,0,0.00,2,2,0,2,50000,50000,0,50000,0,0,0,0,0.00,0.00,0.00,0.00
2016-03-22 15:10:00,2,50000,0,0.00,2,2,0,2,50000,50000,0,50000,0,0,0,0,0.00,0.00,0.00,0.00
2016-03-22 15:20:00,2,50000,0,0.00,2,2,0,2,50000,50000,0,50000,0,0,0,0,0.00,0.00,0.00,0.00
2016-03-22 15:30:00,2,50000,0,0.00,2,2,0,2,50000,50000,0,50000,0,0,0,0,0.00,0.00,0.00,0.00
2016-03-22 15:40:00,2,50000,0,0.00,2,2,0,2,50000,50000,0,50000,0,0,0,0,0.00,0.00,0.00,0.00
2016-03-22 15:50:00,2,50000,0,0.00,2,2,0,2,50000,50000,0,50000,0,0,0,0,0.00,0.00,0.00,0.00
2016-03-22 16:00:00,2,50000,0,0.00,2,2,0,2,50000,50000,0,50000,0,0,0,0,0.00,0.00,0.00,0.00
2016-03-22 16:10:00,2,50000,0,0.00,2,2,0,2,50000,50000,0,50000,0,0,0,0,0.00,0.00,0.00,0.00
2016-03-22 16:20:00,2,50000,0,0.00,2,2,0,2,50000,50000,0,50000,0,0,0,0,0.00,0.00,0.00,0.00
2016-03-22 16:30:00,2,50000,0,0.00,2,2,0,2,50000,50000,0,50000,0,0,0,0,0.00,0.00,0.00,0.00
2016-03-22 16:40:00,2,50000,0,0.00,2,2,0,2,50000,50000,0,50000,0,0,0,0,0.00,0.00,0.00,0.00
2016-03-22 16:50:00,2,49778,0,0.00,2,2,0,2,47784,50000,665,50000,0,0,0,0,0.00,0.00,0.00,0.00
2016-03-22 17:00:00,2,50000,0,0.00,2,2,0,2,50000,50000,0,50000,0,0,0,0,0.00,0.00,0.00,0.00
2016-03-22 17:10:00,2,50000,0,0.00,2,2,0,2,50000,50000,0,50000,0,0,0,0,0.00,0.00,0.00,0.00
2016-03-22 17:20:00,2,50000,0,0.00,2,2,0,2,50000,50000,0,50000,0,0,0,0,0.00,0.00,0.00,0.00
2016-03-22 17:30:00,2,50000,0,0.00,2,2,0,2,50000,50000,0,50000,0,0,0,0,0.00,0.00,0.00,0.00
2016-03-22 17:40:00,2,50000,0,0.00,2,2,0,2,50000,50000,0,50000,0,0,0,0,0.00,0.00,0.00,0.00
2016-03-22 17:50:00,2,50000,0,0.00,2,2,0,2,50000,50000,0,50000,0,0,0,0,0.00,0.00,0.00,0.00
2016-03-22 18:00:00,2,50000,0,0.00,2,2,0,2,50000,50000,0,50000,0,0,0,0,0.00,0.00,0.00,0.00
2016-03-22 18:10:00,2,50000,0,0.00,2,2,0,2,50000,50000,0,50000,0,0,0,0,0.00,0.00,0.00,0.00
2016-03-22 18:20:00,2,50000,0,0.00,2,2,0,2,50000,50000,0,50000,0,0,0,0,0.00,0.00,0.00,0.00
2016-03-22 18:30:00,2,50000,0,0.00,2,2,0,2,50000,50000,0,50000,0,0,0,0,0.00,0.00,0.00,0.00
2016-03-22 18:40:00,2,50000,0,0.00,2,2,0,2,50000,50000,0,50000,0,0,0,0,0.00,0.00,0.00,0.00
2016-03-22 18:50:00,2,50000,0,0.00,2,2,0,2,50000,50000,0,50000,0,0,0,0,0.00,0.00,0.00,0.00
2016-03-22 19:00:00,2,50000,0,0.00,2,2,0,2,50000,50000,0,50000,0,0,0,0,0.00,0.00,0.00,0.00
2016-03-22 19:10:00,2,50000,0,0.00,2,2,0,2,50000,50000,0,50000,0,0,0,0,0.00,0.00,0.00,0.00
2016-03-22 19:20:00,2,50000,0,0.00,2,2,0,2,50000,50000,0,50000,0,0,0,0,0.00,0.00,0.00,0.00
2016-03-22 19:30:00,2,50000,0,0.00,2,2,0,2,50000,50000,0,50000,0,0,0,0,0.00,0.00,0.00,0.00
2016-03-22 19:40:00,2,50000,0,0.00,2,2,0,2,50000,50000,0,50000,0,0,0,0,0.00,0.00,0.00,0.00
2016-03-22 19:50:00,2,50000,0,0.00,2,2,0,2,50000,50000,0,50000,0,0,0,0,0.00,0.00,0.00,0.00
2016-03-22 20:00:00,2,50000,0,0.00,2,2,0,2,50000,50000,0,50000,0,0,0,0,0.00,0.00,0.00,0.00
2016-03-22 20:10:00,2,50000,0,0.00,2,2,0,2,50000,50000,0,50000,0,0,0,0,0.00,0.00,0.00,0.00
2016-03-22 20:20:00,2,50000,0,0.00,2,2,0,2,50000,50000,0,50000,0,0,0,0,0.00,0.00,0.00,0.00
2016-03-22 20:30:00,2,49393,0,0.00,2,2,0,2,45508,50000,1339,50000,0,0,0,0,0.00,0.00,0.00,0.00
2016-03-22 20:40:00,2,49950,0,0.00,2,2,0,2,49499,50000,150,50000,0,0,0,0,0.00,0.00,0.00,0.00
2016-03-22 20:50:00,2,50000,0,0.00,2,2,0,2,50000,50000,0,50000,0,0,0,0,0.00,0.00,0.00,0.00
2016-03-22 21:00:00,2,49997,0,0.00,2,2,0,2,49968,50000,10,50000,0,0,0,0,0.00,0.00,0.00,0.00
2016-03-22 21:10:00,2,49924,0,0.00,2,2,0,2,49541,50000,156,50000,0,0,0,0,0.00,0.00,0.00,0.00
2016-03-22 21:20:00,2,49952,0,0.00,2,2,0,2,49515,50000,146,50000,0,0,0,0,0.00,0.00,0.00,0.00
2016-03-22 21:30:00,2,50000,0,0.00,2,2,0,2,50000,50000,0,50000,0,0,0,0,0.00,0.00,0.00,0.00
2016-03-22 21:40:00,2,49905,0,0.00,2,2,0,2,49283,50000,219,50000,0,0,0,0,0.00,0.00,0.00,0.00
2016-03-22 21:50:00,2,49208,0,0.00,2,2,0,2,45241,50000,1447,50000,0,0,0,0,0.00,0.00,0.00,0.00
2016-03-22 22:00:00,2,49881,0,0.00,2,2,0,2,49200,50000,255,50000,0,0,0,0,0.00,0.00,0.00,0.00
2016-03-22 22:10:00,2,48788,0,0.00,2,2,0,2,44670,50000,1722,50000,0,0,0,0,0.00,0.00,0.00,0.00
2016-03-22 22:20:00,2,48940,0,0.00,2,2,0,2,42300,50000,2376,50000,0,0,0,0,0.00,0.00,0.00,0.00
2016-03-22 22:30:00,2,49734,0,0.00,2,2,0,2,47336,50000,799,50000,0,0,0,0,0.00,0.00,0.00,0.00
2016-03-22 22:40:00,2,48425,0,0.00,2,2,0,2,41965,50000,2367,49428,0,0,0,0,0.00,0.00,0.00,0.00
2016-03-22 22:50:00,2,49780,0,0.00,2,2,0,2,48677,50000,451,50000,0,0,0,0,0.00,0.00,0.00,0.00
2016-03-22 23:00:00,2,48495,0,0.00,2,2,0,2,39707,50000,3023,49800,0,0,0,0,0.00,0.00,0.00,0.00
2016-03-22 23:10:00,2,49296,0,0.00,2,2,0,2,45109,50000,1459,50000,0,0,0,0,0.00,0.00,0.00,0.00
2016-03-22 23:20:00,2,48486,0,0.00,2,2,0,2,43311,50000,2589,50000,0,0,0,0,0.00,0.00,0.00,0.00
2016-03-22 23:30:00,2,47828,0,0.00,2,2,0,2,41655,50000,2546,48704,0,0,0,0,0.00,0.00,0.00,0.00
2016-03-22 23:40:00,2,48069,0,0.00,2,2,0,2,40369,50000,3099,50000,0,0,0,0,0.00,0.00,0.00,0.00
2016-03-22 23:50:00,2,45491,0,0.00,2,2,0,2,41514,50000,2989,45132,0,0,0,0,0.00,0.00,0.00,0.00
